Voltar ao catálogo

CZ-6A DEB

AtivoPO
NORAD 56241·DEBRIS·🇨🇳 China

Lançado Nov 11, 2022 de Taiyuan Satellite Launch Center

Loading…

Próximas Passagens (próximas 24 horas)

TLE

AtualizadoSource: Space-Track

Época: Sep 13, 2026, 06:02 UTC

1 56241U 22151ABH 26256.25190529  .00004581  00000-0  84256-3 0  9999
2 56241  98.8254 355.5656 0081099  47.7892 313.0155 14.64051972191092

Acompanhe CZ-6A DEB em tempo real com AllMySat

Download on the App Store